Home   Weather   Ottawa   Past weeks
Flag for Canada

Past Weather in Ottawa, Ontario, Canada — Yesterday and Last 2 Weeks

Now
50 °F

Passing clouds.


Feels Like: 48 °F
Forecast: 51 / 38 °F
Wind: 6 mph from Southeast

Location: Ottawa Int'L. Ont.

Current Time: Apr 4, 2020 at 10:04:52 pm

Latest Report: Apr 4, 2020 at 9:00 pm


Visibility: 15 mi

Pressure: 30.01 "Hg

Humidity: 62%

Dew Point: 37 °F

Location of OttawaLocation

Past Weather in Ottawa — Graph

°F

Ottawa Temperature Yesterday

Maximum temperature yesterday: 50 °F (at 4:40 pm)
Minimum temperature yesterday: 39 °F (at 12:00 am)
Average temperature yesterday: 45 °F

High & Low Weather Summary for the Past Weeks

 TemperatureHumidityPressure
High57 °F (Apr 4, 3:00 pm)100% (Mar 23, 8:00 pm)30.80 "Hg (Mar 23, 8:00 pm)
Low12 °F (Mar 21, 7:00 am)31% (Mar 27, 3:00 pm)29.64 "Hg (Mar 29, 7:00 pm)
Average36 °F74%30.07 "Hg
* Reported Mar 20 9:00 pm — Apr 4 9:00 pm, Ottawa. Weather by CustomWeather, © 2020

Note: Actual official high and low records may vary slightly from our data, if they occured in-between our weather recording intervals... More about our weather records

Ottawa Weather History for the Previous 24 Hours

Scroll right to see more
 ConditionsComfort  
Time TempWeatherWind HumidityBarometerVisibility
9:00 pm
Sat, Apr 4
50 °FPassing clouds.6 mph62%30.01 "Hg15 mi
8:00 pm50 °FPassing clouds.6 mph62%30.00 "Hg15 mi
7:00 pm55 °FPartly sunny.6 mph51%30.00 "Hg15 mi
6:00 pm55 °FBroken clouds.6 mph51%30.00 "Hg15 mi
5:00 pm57 °FBroken clouds.6 mph48%30.00 "Hg15 mi
4:00 pm57 °FPartly sunny.7 mph48%30.01 "Hg15 mi
3:00 pm57 °FMostly cloudy.3 mph48%30.03 "Hg15 mi
2:00 pm55 °FBroken clouds.7 mph51%30.04 "Hg15 mi
1:00 pm54 °FBroken clouds.6 mph51%30.06 "Hg15 mi
12:00 pm52 °FPartly sunny.6 mph58%30.07 "Hg15 mi
11:00 am48 °FPartly sunny.5 mph62%30.08 "Hg15 mi
10:00 am46 °FPartly sunny.5 mph66%30.09 "Hg15 mi
9:00 am45 °FPartly sunny.9 mph66%30.08 "Hg15 mi
8:00 am41 °FBroken clouds.7 mph76%30.08 "Hg15 mi
7:00 am39 °FPartly sunny.7 mph75%30.06 "Hg15 mi
6:00 am37 °FPartly cloudy.5 mph81%30.06 "Hg15 mi
5:00 am37 °FPartly cloudy.6 mph75%30.06 "Hg15 mi
4:00 am39 °FPassing clouds.9 mph75%30.05 "Hg15 mi
3:00 am39 °FPassing clouds.5 mph75%30.05 "Hg15 mi
2:00 am39 °FPassing clouds.6 mph75%30.04 "Hg15 mi
1:00 am43 °FPassing clouds.7 mph66%30.03 "Hg15 mi
12:00 am46 °FPassing clouds.13 mph62%30.03 "Hg15 mi
11:00 pm
Fri, Apr 3
46 °FPassing clouds.10 mph62%30.04 "Hg15 mi
10:00 pm46 °FPassing clouds.12 mph66%30.05 "Hg15 mi
Weather by CustomWeather, © 2020

See weather overview

Advertising